This is the latest recevied weather packets stored in our database for station/object EA7OC-10. If no packets are shown the sender has not sent any weather packets the latest 10 day(s).
| Time | Temp. | Humidity | Pressure | Rain* | Wind** | Luminosity | Snow |
|---|---|---|---|---|---|---|---|
| 1787410353 | 39.44° C | 29% | 1013.7 hPa | - | - | - | - |
| 1787409453 | 39.44° C | 29% | 1013.8 hPa | - | - | - | - |
| 1787408553 | 38.89° C | 29% | 1013.9 hPa | - | - | - | - |
| 1787407653 | 38.89° C | 30% | 1014 hPa | - | - | - | - |
| 1787406753 | 38.33° C | 30% | 1014.2 hPa | - | - | - | - |
| 1787405853 | 38.33° C | 30% | 1014.4 hPa | - | - | - | - |
| 1787404953 | 37.78° C | 30% | 1014.4 hPa | - | - | - | - |
| 1787404052 | 37.78° C | 31% | 1014.5 hPa | - | - | - | - |
| 1787403152 | 37.22° C | 31% | 1014.6 hPa | - | - | - | - |
| 1787402252 | 36.67° C | 31% | 1014.6 hPa | - | - | - | - |
| 1787401352 | 36.67° C | 31% | 1014.6 hPa | - | - | - | - |
| 1787400452 | 36.67° C | 32% | 1014.6 hPa | - | - | - | - |
| 1787399552 | 36.67° C | 32% | 1014.9 hPa | - | - | - | - |
| 1787398652 | 36.11° C | 32% | 1015.1 hPa | - | - | - | - |
| 1787397752 | 35.56° C | 32% | 1015.3 hPa | - | - | - | - |
| 1787396852 | 35.56° C | 33% | 1015.4 hPa | - | - | - | - |
| 1787395952 | 34.44° C | 33% | 1015.6 hPa | - | - | - | - |
| 1787395051 | 34.44° C | 31% | 1015.7 hPa | - | - | - | - |
| 1787394151 | 35.56° C | 32% | 1015.9 hPa | - | - | - | - |
| 1787393251 | 35° C | 32% | 1016.1 hPa | - | - | - | - |
| 1787392351 | 33.89° C | 32% | 1016.1 hPa | - | - | - | - |
| 1787391451 | 33.89° C | 32% | 1016.1 hPa | - | - | - | - |
| 1787390551 | 33.89° C | 31% | 1016 hPa | - | - | - | - |
| 1787389651 | 33.89° C | 31% | 1016.2 hPa | - | - | - | - |
| 1787388751 | 34.44° C | 31% | 1016 hPa | - | - | - | - |
* Rain since midnight (hover to see other rain measurements)
** Current wind speed in m/s (hover to see current wind gust speed)